Retour au catalogue

COSMOS 2618

ActifMilitaireSSO
NORAD 68829·PAYLOAD·🇷🇺 Russia

Lancé Apr 23, 2026 depuis Plesetsk Cosmodrome

Loading…

Prochains Passages (prochaines 24 heures)

TLE

FraisSource: Space-Track

Époque: Sep 14, 2026, 12:52 UTC

1 68829U 26090D   26257.53640052  .00035222  22503-5  14272-3 0  9997
2 68829  96.6364 172.7046 0014898  60.1004 300.1746 15.86368454 22822

Suivez COSMOS 2618 en temps réel avec AllMySat

Download on the App Store